User: anonymous   Login
Location: Curupao
(10.4996°N, 66.6442°W)
Time: 15:21:14
(UTC+00:00)
Language:

Cosmos 1943 Rocket - Orbit

View from above orbital plane
View from above orbital plane
View from above satellite
View from above satellite

Ground track
Ground track

The orbit data is extracted from the following two-line orbital elements,

1 19120U 88039B   24201.86090718 -.00000019  00000-0  13722-4 0  9999
2 19120  71.0133 252.4987 0021892 183.1043 176.9950 14.19426112873544
Epoch (UTC): 19 July 2024 20:39:42
Eccentricity: 0.0021892
inclination: 71.0133°
perigee height: 811 km
apogee height: 843 km
right ascension of ascending node: 252.4987°
argument of perigee: 183.1043°
revolutions per day: 14.19426112
mean anomaly at epoch: 176.9950°
orbit number at epoch: 87354

The dashed part of the orbit path shows where the satellite is in the earth's shadow,  

DLR